Weather History for Ephrata, WA

Change the Weather History Date:

Friday, August 15, 2014

  Actual Average Record
Temperature  
Mean Temperature 71 °F 73 °F  
Max Temperature 80 °F 88 °F 103 °F (2001)
Min Temperature 61 °F 59 °F 49 °F (1993)
Degree Days  
Heating Degree Days 0 0  
Month to date heating degree days 0 0  
Since 1 June heating degree days 24 68  
Since 1 July heating degree days 1 8  
Cooling Degree Days 6 9  
Month to date cooling degree days 229 149  
Year to date cooling degree days 892 589  
Since 1 June cooling degree days 848 552  
Growing Degree Days 20 (Base 50)    
Moisture  
Dew Point 60 °F    
Average Humidity 73    
Maximum Humidity 93    
Minimum Humidity 52    
Precipitation  
Precipitation 0.68 in 0.00 in 0.68 in (2014)
Month to date precipitation 0.83 0.11  
Year to date precipitation 3.89 4.58  
Sea Level Pressure  
Sea Level Pressure 29.98 in    
Wind  
Wind Speed 6 mph (SW)    
Max Wind Speed 22 mph    
Max Gust Speed 26 mph    
Visibility 9 miles    
Events Rain    
T = Trace of Precipitation, MM = Missing Value Source: NWS Daily Summary

Daily Weather History Graph

Daily Weather History Graph

Search for Another Location

Airport:

Trip Planner

Search our weather history database for the weather conditions in past years. The results will help you decide how hot, cold, wet, or windy it might be!

Date:

Astronomy

Aug. 15, 2014 Rise Set
Actual Time 5:54 AM PDT 8:09 PM PDT
Civil Twilight 5:21 AM PDT 8:42 PM PDT
Nautical Twilight 4:39 AM PDT 9:24 PM PDT
Astronomical Twilight 3:51 AM PDT 10:11 PM PDT
Moon 10:47 PM PDT (8/15) 12:09 PM PDT (8/15)
Length of Visible Light 15h 21m
Length of Day
14h 14m
Waning Gibbous, 68% of the Moon is Illuminated
Aug 15
Waning Gibbous
Aug 17
Last Quarter
Aug 25
New
Sep 2
First Quarter
Sep 8
Full

Hourly Weather History & Observations

Time (PDT) Temp. Dew Point Humidity Pressure Visibility Wind Dir Wind Speed Gust Speed Precip Events Conditions
12:53 AM 68.0 °F 60.1 °F 76% 29.94 in 10.0 mi NNW 9.2 mph - N/A   Overcast
1:53 AM 68.0 °F 59.0 °F 73% 29.94 in 10.0 mi West 8.1 mph - N/A   Overcast
2:53 AM 66.0 °F 60.1 °F 81% 29.96 in 10.0 mi South 20.7 mph 25.3 mph N/A   Overcast
3:14 AM 62.1 °F 59.0 °F 90% 29.98 in 1.8 mi South 8.1 mph - 0.21 in Rain Heavy Rain
3:21 AM 61.0 °F 59.0 °F 93% 29.98 in 1.0 mi West 10.4 mph - 0.51 in Rain Heavy Rain
3:31 AM 62.1 °F 59.0 °F 90% 29.96 in 2.0 mi WNW 12.7 mph - 0.58 in Rain Rain
3:36 AM 62.1 °F 59.0 °F 90% 29.96 in 4.0 mi West 16.1 mph - 0.59 in Rain Light Rain
3:53 AM 64.0 °F 57.9 °F 80% 29.94 in 10.0 mi West 11.5 mph - 0.59 in Rain Light Rain
4:53 AM 64.0 °F 57.0 °F 78% 29.94 in 10.0 mi NW 4.6 mph - 0.00 in Rain Light Rain
5:53 AM 63.0 °F 59.0 °F 87% 29.96 in 10.0 mi East 3.5 mph - 0.02 in Rain Light Rain
7:53 AM 62.1 °F 60.1 °F 93% 29.98 in 7.0 mi SW 3.5 mph - 0.05 in Rain Light Rain
8:53 AM 63.0 °F 60.1 °F 90% 29.99 in 10.0 mi SSW 3.5 mph - 0.02 in Rain Light Rain
9:37 AM 64.0 °F 62.1 °F 93% 30.02 in 10.0 mi SSW 3.5 mph - 0.00 in   Overcast
9:53 AM 64.0 °F 62.1 °F 93% 30.01 in 10.0 mi SW 4.6 mph - 0.00 in   Overcast
10:03 AM 64.9 °F 62.1 °F 90% 30.02 in 9.0 mi SSW 4.6 mph - N/A   Overcast
10:27 AM 64.9 °F 62.1 °F 90% 30.02 in 9.0 mi South 3.5 mph - N/A   Overcast
10:53 AM 66.0 °F 62.1 °F 87% 30.01 in 8.0 mi Calm Calm - N/A   Overcast
11:09 AM 64.9 °F 62.1 °F 90% 30.03 in 8.0 mi South 4.6 mph - 0.00 in Rain Light Rain
11:33 AM 66.0 °F 62.1 °F 87% 30.03 in 8.0 mi SSE 5.8 mph - 0.00 in Rain Light Rain
11:53 AM 66.9 °F 63.0 °F 87% 30.01 in 10.0 mi South 4.6 mph - 0.00 in   Mostly Cloudy
12:04 PM 66.9 °F 63.0 °F 87% 30.02 in 10.0 mi South 4.6 mph - N/A   Mostly Cloudy
12:23 PM 69.1 °F 62.1 °F 78% 30.02 in 10.0 mi South 5.8 mph - N/A   Scattered Clouds
12:32 PM 69.1 °F 62.1 °F 78% 30.02 in 10.0 mi SSE 5.8 mph - N/A   Mostly Cloudy
12:53 PM 70.0 °F 62.1 °F 76% 30.00 in 10.0 mi South 4.6 mph - N/A   Mostly Cloudy
1:16 PM 71.1 °F 62.1 °F 73% 30.00 in 10.0 mi SSE 5.8 mph - N/A   Scattered Clouds
1:53 PM 73.0 °F 61.0 °F 66% 29.98 in 10.0 mi South 5.8 mph - N/A   Scattered Clouds
2:53 PM 75.9 °F 59.0 °F 56% 29.96 in 10.0 mi WSW 6.9 mph - N/A   Scattered Clouds
3:53 PM 78.1 °F 59.0 °F 52% 29.96 in 10.0 mi WSW 8.1 mph - N/A   Scattered Clouds
4:53 PM 79.0 °F 62.1 °F 56% 29.96 in 10.0 mi WSW 11.5 mph - N/A   Partly Cloudy
5:53 PM 75.9 °F 59.0 °F 56% 29.95 in 10.0 mi WSW 10.4 mph - N/A   Partly Cloudy
6:53 PM 75.0 °F 60.1 °F 60% 29.95 in 10.0 mi WSW 9.2 mph - N/A   Mostly Cloudy
7:53 PM 72.0 °F 59.0 °F 64% 29.95 in 10.0 mi SW 5.8 mph - N/A   Scattered Clouds
8:53 PM 68.0 °F 61.0 °F 78% 29.96 in 10.0 mi SW 6.9 mph - N/A   Clear
10:53 PM 64.9 °F 60.1 °F 84% 29.97 in 10.0 mi Calm Calm - N/A   Clear
11:53 PM 68.0 °F 57.0 °F 68% 29.97 in 10.0 mi WNW 4.6 mph - N/A   Clear